Leadville, CO

2:53 PM MDT on April 20, 2018 (GMT -0600)
Lake County

Weather History for KLXV - February, 2013

Change the Weather History Date:

Friday, February 22, 2013

  Actual Average Record
Temperature  
Mean Temperature 7 °F -  
Max Temperature 20 °F 33 °F 46 °F (1991)
Min Temperature -7 °F 6 °F -13 °F (1987)
Degree Days  
Heating Degree Days 58 46  
Month to date heating degree days 1114 1041  
Since 1 July heating degree days 7204 7438  
Cooling Degree Days 0 0  
Month to date cooling degree days 0 0  
Year to date cooling degree days 0 0  
Moisture  
Dew Point 1 °F    
Average Humidity 67    
Maximum Humidity 88    
Minimum Humidity 45    
Precipitation  
Precipitation T in 0.03 in 0.83 in (1977)
Month to date precipitation 0.67 0.53  
Year to date precipitation 1.34 1.15  
Sea Level Pressure  
Sea Level Pressure 29.85 in    
Wind  
Wind Speed 6 mph (North)    
Max Wind Speed 17 mph    
Max Gust Speed 21 mph    
Visibility 6 miles    
Events Snow    
T = Trace of Precipitation, MM = Missing Value Source: NWS Daily Summary

Daily Weather History Graph

Daily Weather History Graph

Search for Another Location

Airport or City:

Astronomy

Feb. 22, 2013 Rise Set
Actual Time 6:47 AM MST 5:50 PM MST
Civil Twilight 6:20 AM MST 6:17 PM MST
Nautical Twilight 5:49 AM MST 6:48 PM MST
Astronomical Twilight 5:18 AM MST 7:19 PM MST
Moon 3:05 PM MST (2/22) 4:33 AM MST (2/22)
Length of Visible Light 11h 57m
Length of Day
11h 03m
Waxing Gibbous, 90% of the Moon is Illuminated
Feb 22
Waxing Gibbous
Feb 25
Full
Mar 4
Last Quarter
Mar 11
New
Mar 19
First Quarter

Hourly Weather History & Observations

Time (MST) Temp. Windchill Dew Point Humidity Pressure Visibility Wind Dir Wind Speed Gust Speed Precip Events Conditions
12:53 AM 1.9 °F -13.8 °F -2.9 °F 80% 29.81 in 10.0 mi NE 10.4 mph - N/A   Mostly Cloudy
1:03 AM 3.2 °F -11.3 °F -2.2 °F 78% 29.75 in 10.0 mi NE 9.2 mph - N/A   Scattered Clouds
1:53 AM -0.0 °F -15.3 °F -5.1 °F 79% 29.82 in 10.0 mi NE 9.2 mph - N/A   Clear
2:53 AM 1.9 °F -9.2 °F -2.9 °F 80% 29.80 in 10.0 mi Variable 5.8 mph - N/A   Partly Cloudy
3:53 AM -0.0 °F -14.2 °F -5.1 °F 79% 29.80 in 10.0 mi NE 8.1 mph - N/A   Clear
4:53 AM -2.9 °F -17.7 °F -7.1 °F 82% 29.83 in 10.0 mi NE 8.1 mph - N/A   Clear
5:53 AM -0.0 °F -14.2 °F -5.1 °F 79% 29.85 in 10.0 mi NE 8.1 mph - N/A   Clear
6:53 AM -4.0 °F -12.4 °F -9.0 °F 79% 29.89 in 10.0 mi NNE 3.5 mph - N/A   Scattered Clouds
7:53 AM 1.9 °F -9.2 °F -4.0 °F 76% 29.89 in 10.0 mi NE 5.8 mph - N/A   Partly Cloudy
8:53 AM 10.9 °F 4.7 °F 1.0 °F 64% 29.85 in 10.0 mi NNE 3.5 mph - N/A   Clear
9:53 AM 14.0 °F - 1.0 °F 56% 29.83 in 10.0 mi Calm Calm - N/A   Mostly Cloudy
10:53 AM 16.0 °F - 3.9 °F 59% 29.84 in 2.5 mi Calm Calm - 0.00 in Snow Light Snow
11:00 AM 15.8 °F - 5.0 °F 62% 29.78 in 2.5 mi Calm Calm - 0.00 in Snow Light Snow
11:16 AM 15.8 °F 10.2 °F 6.8 °F 68% 29.78 in 1.8 mi Variable 3.5 mph - 0.00 in Snow Light Snow
11:20 AM 15.8 °F - 3.2 °F 58% 29.78 in 3.0 mi Calm Calm - 0.00 in Snow Light Snow
11:38 AM 17.6 °F - 3.2 °F 53% 29.78 in 10.0 mi Calm Calm - 0.00 in   Overcast
11:53 AM 17.1 °F - 3.9 °F 56% 29.88 in 9.0 mi Calm Calm - 0.00 in   Overcast
12:53 PM 19.0 °F 9.0 °F 1.9 °F 47% 29.81 in 10.0 mi WNW 8.1 mph - N/A   Overcast
1:53 PM 17.1 °F 5.0 °F 5.0 °F 59% 29.84 in 10.0 mi North 10.4 mph - N/A   Overcast
2:53 PM 17.1 °F 6.6 °F 6.1 °F 62% 29.83 in 7.0 mi NNW 8.1 mph - 0.00 in   Overcast
3:10 PM 14.0 °F -1.4 °F 6.8 °F 73% 29.77 in 2.5 mi North 15.0 mph 20.7 mph 0.00 in Snow Light Snow
3:18 PM 15.8 °F 5.1 °F 6.8 °F 68% 29.77 in 1.5 mi NNW 8.1 mph - 0.00 in Snow Light Snow
3:21 PM 17.6 °F 5.0 °F 6.8 °F 63% 29.77 in 3.0 mi NNW 11.5 mph 18.4 mph 0.00 in Snow Light Snow
3:53 PM 16.0 °F 3.6 °F 5.0 °F 62% 29.87 in 9.0 mi North 10.4 mph - 0.00 in   Mostly Cloudy
4:53 PM 14.0 °F 0.5 °F -0.0 °F 54% 29.91 in 10.0 mi NW 11.5 mph - 0.00 in   Scattered Clouds
5:41 PM 10.4 °F -2.4 °F -0.4 °F 62% 29.79 in 10.0 mi NW 9.2 mph - N/A   Mostly Cloudy
5:53 PM 10.0 °F 0.4 °F 1.0 °F 67% 29.96 in 10.0 mi North 5.8 mph - N/A   Mostly Cloudy
6:06 PM 8.6 °F -5.5 °F 1.4 °F 73% 29.82 in 10.0 mi North 10.4 mph - N/A   Mostly Cloudy
6:36 PM 8.6 °F -2.6 °F 3.2 °F 79% 29.82 in 2.5 mi North 6.9 mph - 0.00 in Snow Light Snow
6:43 PM 8.6 °F -1.3 °F 3.2 °F 79% 29.82 in 4.0 mi North 5.8 mph - 0.00 in Snow Light Snow
6:49 PM 6.8 °F -3.5 °F 3.2 °F 85% 29.82 in 2.5 mi North 5.8 mph - 0.00 in Snow Light Snow
6:53 PM 7.0 °F -1.7 °F 3.0 °F 84% 30.02 in 2.5 mi North 4.6 mph - 0.00 in Snow Light Snow
6:59 PM 6.8 °F -3.5 °F 3.2 °F 85% 29.83 in 3.0 mi North 5.8 mph - 0.00 in   Overcast
7:16 PM 8.6 °F -1.3 °F 3.2 °F 79% 29.84 in 2.5 mi North 5.8 mph - 0.00 in Snow Light Snow
7:39 PM 8.6 °F -2.6 °F 3.2 °F 79% 29.84 in 1.8 mi NNW 6.9 mph - 0.00 in Snow Light Snow
7:53 PM 7.0 °F -3.3 °F 3.0 °F 84% 30.00 in 2.0 mi NNW 5.8 mph - 0.00 in Snow Light Snow
8:13 PM 6.8 °F -7.8 °F 3.2 °F 85% 29.85 in 2.5 mi NNW 10.4 mph - 0.00 in Snow Light Snow
8:26 PM 6.8 °F -6.9 °F 1.4 °F 79% 29.85 in 3.0 mi NW 9.2 mph - 0.00 in Snow Light Snow
8:34 PM 6.8 °F -6.9 °F 1.4 °F 79% 29.85 in 2.5 mi NW 9.2 mph 18.4 mph 0.00 in Snow Light Snow
8:45 PM 6.8 °F -8.6 °F 1.4 °F 79% 29.85 in 5.0 mi WNW 11.5 mph - 0.00 in   Haze
8:53 PM 6.1 °F -7.8 °F 1.0 °F 80% 29.95 in 8.0 mi NW 9.2 mph - 0.00 in   Overcast
9:53 PM 3.9 °F -5.3 °F -0.9 °F 80% 29.96 in 10.0 mi North 4.6 mph - N/A   Overcast
10:53 PM 1.9 °F -9.2 °F -4.0 °F 76% 29.97 in 6.0 mi North 5.8 mph - 0.00 in Snow Light Snow
11:53 PM 1.9 °F -9.2 °F -2.9 °F 80% 29.94 in 5.0 mi NE 5.8 mph - 0.00 in   Haze